W4FY Weather Reports


Display with metric or nautical units.
time (UTC)temp
F
wind
direction
speed
MPH
gust
MPH
rain 1hr
in
rain 24hr
in
rain mn
in
humidity
%
barometer
mb
20260906051803 65 209 1.0 3.0 0.00 0.02 0.00 92 1027.3
20260906050903 65 209 1.0 2.0 0.00 0.02 0.00 91 1027.3
20260906050004 65 209 1.0 2.0 0.00 0.02 0.00 90 1027.3
20260906045403 65 209 1.0 2.0 0.00 0.02 0.00 89 1026.9
20260906044503 65 216 1.0 4.0 0.00 0.02 0.00 89 1027.3
20260906043603 65 231 1.0 3.0 0.00 0.02 0.00 89 1027.3
20260906042919 66 231 1.0 3.0 0.00 0.02 0.00 89 1026.9
20260906041803 66 245 1.0 4.0 0.00 0.02 0.00 88 1027.3
20260906040903 66 264 0.0 1.0 0.00 0.02 0.00 87 1026.9
20260906040010 66 264 0.0 1.0 0.00 0.02 0.00 87 1027.3
20260906035403 66 264 0.0 1.0 0.00 0.02 0.02 87 1027.3
20260906034717 66 264 0.0 1.0 0.00 0.02 0.02 87 1027.3
20260906033603 66 292 1.0 2.0 0.00 0.02 0.02 87 1027.3
20260906032703 66 319 2.0 4.0 0.00 0.02 0.02 88 1027.3
20260906031803 66 305 2.0 4.0 0.00 0.02 0.02 87 1027.7
20260906030903 66 277 1.0 4.0 0.00 0.02 0.02 88 1027.7
20260906030003 66 199 1.0 2.0 0.00 0.02 0.02 88 1027.3
20260906025403 66 199 1.0 2.0 0.00 0.02 0.02 88 1027.7
20260906024503 66 199 0.0 2.0 0.00 0.02 0.02 87 1027.7
20260906023603 66 199 0.0 2.0 0.00 0.02 0.02 87 1026.9
20260906022918 66 199 0.0 2.0 0.00 0.02 0.02 88 1026.9
20260906021803 66 198 1.0 3.0 0.00 0.02 0.02 88 1027.3
20260906021118 66 197 0.0 2.0 0.00 0.02 0.02 88 1026.9
20260906020003 66 197 1.0 2.0 0.00 0.02 0.02 87 1026.9
20260906015403 66 197 1.0 3.0 0.00 0.02 0.02 88 1026.9
20260906014503 66 209 1.0 4.0 0.00 0.02 0.02 87 1027.3
20260906013603 66 272 1.0 3.0 0.00 0.02 0.02 88 1026.9
20260906012917 66 269 1.0 3.0 0.00 0.02 0.02 88 1026.9
20260906011803 66 318 2.0 9.0 0.00 0.02 0.02 88 1026.9
20260906010903 66 310 1.0 4.0 0.00 0.02 0.02 87 1026.5
20260906010217 67 319 1.0 3.0 0.00 0.02 0.02 87 1026.5
20260906005617 67 311 1.0 4.0 0.00 0.02 0.02 87 1026.9
20260906004503 67 289 1.0 3.0 0.00 0.02 0.02 87 1026.9
20260906003817 67 310 1.0 4.0 0.00 0.02 0.02 86 1026.5
20260906002703 67 316 1.0 6.0 0.00 0.02 0.02 87 1026.5
20260906001803 67 281 1.0 7.0 0.00 0.02 0.02 86 1026.5
20260906000903 67 266 1.0 3.0 0.00 0.02 0.02 86 1026.5
20260906000003 67 317 1.0 3.0 0.00 0.02 0.02 85 1026.5
20260905235404 67 313 1.0 7.0 0.00 0.02 0.02 85 1026.5
20260905234503 68 308 1.0 4.0 0.00 0.02 0.02 84 1026.5
20260905233603 68 345 1.0 3.0 0.00 0.02 0.02 84 1026.5
20260905232703 68 299 1.0 4.0 0.00 0.02 0.02 84 1026.5
20260905231803 68 223 1.0 3.0 0.00 0.02 0.02 84 1026.5
20260905230903 69 195 1.0 3.0 0.00 0.02 0.02 82 1026.1
20260905230003 69 122 1.0 3.0 0.00 0.02 0.02 81 1026.1
20260905225403 70 139 1.0 4.0 0.00 0.02 0.02 80 1026.5
20260905224503 70 303 0.0 3.0 0.00 0.02 0.02 79 1026.1
20260905223603 71 310 2.0 7.0 0.00 0.02 0.02 78 1026.1
20260905222703 71 339 2.0 8.0 0.00 0.02 0.02 77 1026.1
20260905221803 72 39 1.0 4.0 0.00 0.02 0.02 78 1026.1
20260905220903 72 281 1.0 6.0 0.00 0.02 0.02 78 1026.5
20260905220003 72 298 1.0 8.0 0.00 0.02 0.02 77 1026.5
20260905215403 72 306 2.0 11.0 0.00 0.02 0.02 77 1026.1
20260905214503 73 312 2.0 7.0 0.00 0.02 0.02 76 1026.1
20260905213603 73 334 1.0 7.0 0.00 0.02 0.02 76 1026.5
20260905212703 73 310 1.0 6.0 0.00 0.02 0.02 74 1026.5
20260905211803 73 341 2.0 7.0 0.00 0.02 0.02 74 1026.9
20260905210903 74 313 2.0 6.0 0.00 0.02 0.02 75 1026.5
20260905210003 74 300 1.0 6.0 0.00 0.02 0.02 74 1026.5
20260905205403 74 207 1.0 3.0 0.00 0.02 0.02 74 1026.5
20260905204503 74 200 1.0 3.0 0.00 0.02 0.02 74 1026.9
20260905203603 74 249 1.0 3.0 0.00 0.02 0.02 73 1026.5
20260905202703 74 241 1.0 3.0 0.00 0.02 0.02 73 1026.9
20260905202017 74 300 1.0 4.0 0.00 0.02 0.02 72 1026.9
20260905200903 74 339 1.0 7.0 0.00 0.02 0.02 72 1026.9
20260905200004 74 311 1.0 6.0 0.00 0.02 0.02 72 1027.3
20260905195403 74 304 1.0 4.0 0.00 0.02 0.02 72 1026.9
20260905194503 74 303 1.0 6.0 0.00 0.02 0.02 73 1026.9
20260905193603 73 316 2.0 8.0 0.00 0.02 0.02 74 1027.3
20260905192917 73 357 2.0 8.0 0.00 0.02 0.02 72 1026.9
20260905192018 72 345 1.0 6.0 0.00 0.02 0.02 72 1027.3
20260905190903 70 312 1.0 4.0 0.00 0.02 0.02 72 1027.3
20260905190217 69 300 1.0 6.0 0.00 0.02 0.02 71 1027.3
20260905185403 68 324 1.0 4.0 0.00 0.02 0.02 71 1027.3
20260905184503 68 326 1.0 4.0 0.00 0.02 0.02 70 1027.3
20260905183817 68 326 1.0 3.0 0.00 0.02 0.02 70 1027.3
20260905182703 67 319 2.0 8.0 0.00 0.02 0.02 72 1027.3
20260905181803 66 305 2.0 4.0 0.01 0.02 0.02 75 1027.7
20260905180903 64 303 1.0 4.0 0.02 0.02 0.02 78 1027.7
20260905180003 64 333 3.0 9.0 0.02 0.02 0.02 80 1028.0
20260905175403 63 325 3.0 7.0 0.02 0.02 0.02 82 1028.4
20260905174717 62 316 2.0 7.0 0.02 0.02 0.02 83 1028.0
20260905173603 61 327 1.0 3.0 0.02 0.02 0.02 85 1028.4
20260905172703 62 24 1.0 7.0 0.02 0.02 0.02 86 1028.8
20260905171803 64 52 3.0 10.0 0.01 0.01 0.01 82 1029.2
20260905170903 66 339 5.0 13.0 0.00 0.00 0.00 77 1029.2
20260905170003 69 341 5.0 14.0 0.00 0.00 0.00 74 1028.8
20260905165403 72 359 3.0 14.0 0.00 0.00 0.00 74 1028.8
20260905164503 75 147 1.0 4.0 0.00 0.00 0.00 72 1028.8
20260905163816 76 159 1.0 4.0 0.00 0.00 0.00 72 1029.2
20260905162703 78 160 1.0 2.0 0.00 0.00 0.00 70 1029.2
20260905161803 77 162 1.0 4.0 0.00 0.00 0.00 70 1029.2
20260905160903 77 240 1.0 6.0 0.00 0.00 0.00 71 1029.6
20260905160003 77 284 1.0 3.0 0.00 0.00 0.00 69 1029.6
20260905155403 76 282 1.0 4.0 0.00 0.00 0.00 71 1029.2
20260905154503 76 277 1.0 3.0 0.00 0.00 0.00 70 1029.6
20260905153603 76 274 1.0 6.0 0.00 0.00 0.00 72 1029.6
20260905152703 76 270 1.0 3.0 0.00 0.00 0.00 72 1029.6
20260905151803 76 270 1.0 2.0 0.00 0.00 0.00 71 1029.2
20260905150903 76 270 1.0 4.0 0.00 0.00 0.00 71 1029.2
20260905150003 76 270 1.0 3.0 0.00 0.00 0.00 71 1029.2
20260905145403 77 269 1.0 3.0 0.00 0.00 0.00 70 1029.2
20260905144716 77 269 1.0 3.0 0.00 0.00 0.00 69 1029.2
20260905143603 77 270 1.0 3.0 0.00 0.00 0.00 70 1028.8
20260905142703 77 270 1.0 3.0 0.00 0.00 0.00 69 1029.2
20260905142016 77 270 1.0 3.0 0.00 0.00 0.00 71 1029.2
20260905140903 77 270 1.0 2.0 0.00 0.00 0.00 72 1029.2
20260905140004 77 270 1.0 2.0 0.00 0.00 0.00 72 1029.2
20260905135404 77 270 1.0 3.0 0.00 0.00 0.00 70 1028.8
20260905134503 77 270 1.0 4.0 0.00 0.00 0.00 69 1029.2
20260905133603 78 244 1.0 6.0 0.00 0.00 0.00 68 1029.2
20260905132703 80 152 1.0 4.0 0.00 0.00 0.00 67 1029.2
20260905131803 80 148 1.0 3.0 0.00 0.00 0.00 68 1029.2
20260905130903 78 148 1.0 3.0 0.00 0.00 0.00 72 1029.6
20260905130217 78 148 1.0 3.0 0.00 0.00 0.00 71 1029.6
20260905125403 78 152 1.0 4.0 0.00 0.00 0.00 71 1029.6
20260905124503 78 296 1.0 3.0 0.00 0.00 0.00 72 1029.6
20260905123603 77 296 1.0 3.0 0.00 0.00 0.00 73 1029.6
20260905122703 77 296 1.0 2.0 0.00 0.00 0.00 75 1029.2
20260905093603 68 297 2.0 6.0 0.00 0.00 0.00 84 1028.0
20260905092703 68 297 2.0 7.0 0.00 0.00 0.00 84 1028.0
20260905091803 68 297 2.0 4.0 0.00 0.00 0.00 83 1028.0
20260905090903 69 297 2.0 6.0 0.00 0.00 0.00 83 1028.0
20260905090003 69 295 2.0 4.0 0.00 0.00 0.00 82 1028.4
20260905085403 69 284 2.0 6.0 0.00 0.00 0.00 82 1028.0
20260905084503 68 262 1.0 3.0 0.00 0.00 0.00 82 1028.4
20260905083603 68 262 1.0 3.0 0.00 0.00 0.00 82 1028.4
20260905082918 69 262 1.0 3.0 0.00 0.00 0.00 81 1028.4
20260905081803 69 261 1.0 4.0 0.00 0.00 0.00 81 1028.4
20260905080903 68 261 1.0 3.0 0.00 0.00 0.00 81 1028.8
20260905080003 68 261 1.0 3.0 0.00 0.00 0.00 81 1028.8
20260905075403 68 261 1.0 2.0 0.00 0.00 0.00 81 1028.8
20260905074503 68 261 1.0 2.0 0.00 0.00 0.00 81 1028.8
20260905073603 68 261 1.0 2.0 0.00 0.00 0.00 81 1028.8
20260905072917 69 261 1.0 2.0 0.00 0.00 0.00 81 1029.2
20260905071803 69 261 1.0 2.0 0.00 0.00 0.00 82 1029.2
20260905070903 69 261 1.0 3.0 0.00 0.00 0.00 82 1028.8
20260905070003 70 262 1.0 2.0 0.00 0.00 0.00 82 1029.2
20260905065403 70 262 1.0 2.0 0.00 0.00 0.00 82 1029.2
20260905064503 69 262 1.0 2.0 0.00 0.00 0.00 82 1029.6
20260905063603 69 262 1.0 2.0 0.00 0.00 0.00 82 1029.2
20260905062703 69 262 2.0 3.0 0.00 0.00 0.00 82 1029.6
20260905061803 69 262 2.0 3.0 0.00 0.00 0.00 81 1029.6
20260905060903 69 262 2.0 3.0 0.00 0.00 0.00 81 1029.6
20260905060217 69 262 1.0 3.0 0.00 0.00 0.00 81 1030.0
20260905055403 69 262 1.0 3.0 0.00 0.00 0.00 81 1030.0
20260905054503 69 262 1.0 2.0 0.00 0.00 0.00 81 1030.4
20260905053603 69 262 0.0 2.0 0.00 0.00 0.00 81 1030.0
20260905052703 69 261 1.0 3.0 0.00 0.00 0.00 82 1030.0